When you browse on this site, cookies collect data to enhance your experience and personalize the content and advertising you see.
Visit our Privacy Policy to learn more. By continuing to use the site, you agree to this use of cookies and data.
  • en Belgique
  • Liste des pays
  • À 7 jours
  • Température de l'eau
  • Carte météo
  • Widgets météo
  • user-avatar
    Se connecter

    Météo par heure à Ile de Korfu

    Ce jour, 22 Janvier, Mercredi

    Heure Température Précipitation Vent Pression Humidité
    00:00 +7°C° 0 mm 2 m/s 772 mmHg 59%
    01:00 +7°C° 0 mm 2 m/s 772 mmHg 57%
    02:00 +7°C° 0 mm 2 m/s 772 mmHg 56%
    03:00 +7°C° 0 mm 2 m/s 771 mmHg 56%
    04:00 +7°C° 0 mm 2 m/s 771 mmHg 55%
    05:00 +7°C° 0 mm 2 m/s 771 mmHg 54%
    06:00 +7°C° 0 mm 2 m/s 771 mmHg 54%
    07:00 +7°C° 0 mm 2 m/s 771 mmHg 54%
    08:00 +8°C° 0 mm 2 m/s 770 mmHg 51%
    09:00 +10°C° 0 mm 2 m/s 770 mmHg 49%
    10:00 +12°C° 0 mm 2 m/s 770 mmHg 46%
    11:00 +12°C° 0 mm 3 m/s 770 mmHg 46%
    12:00 +12°C° 0 mm 3 m/s 769 mmHg 45%
    13:00 +12°C° 0 mm 3 m/s 769 mmHg 45%
    14:00 +12°C° 0 mm 4 m/s 768 mmHg 48%
    15:00 +12°C° 0 mm 4 m/s 768 mmHg 52%
    16:00 +11°C° 0 mm 4 m/s 768 mmHg 55%
    17:00 +11°C° 0 mm 4 m/s 767 mmHg 55%
    18:00 +9°C° 0 mm 5 m/s 767 mmHg 55%
    19:00 +8°C° 0 mm 5 m/s 767 mmHg 55%
    20:00 +8°C° 0 mm 5 m/s 767 mmHg 55%
    21:00 +7°C° 0 mm 5 m/s 767 mmHg 54%
    22:00 +7°C° 0 mm 5 m/s 766 mmHg 54%
    23:00 +7°C° 0 mm 5 m/s 766 mmHg 54%

    Demain, 23 Janvier, Jeudi

    Heure Température Précipitation Vent Pression Humidité
    00:00 +7°C° 0 mm 5 m/s 766 mmHg 53%
    01:00 +5°C° 0 mm 6 m/s 766 mmHg 53%
    02:00 +5°C° 0 mm 6 m/s 766 mmHg 55%
    03:00 +5°C° 0 mm 6 m/s 765 mmHg 56%
    04:00 +5°C° 0 mm 6 m/s 765 mmHg 58%
    05:00 +5°C° 0 mm 6 m/s 765 mmHg 60%
    06:00 +5°C° 0 mm 6 m/s 765 mmHg 62%
    07:00 +5°C° 0 mm 6 m/s 765 mmHg 63%
    08:00 +7°C° 0 mm 5 m/s 765 mmHg 59%
    09:00 +9°C° 0 mm 5 m/s 765 mmHg 55%
    10:00 +11°C° 0 mm 4 m/s 765 mmHg 52%
    11:00 +12°C° 0 mm 4 m/s 765 mmHg 50%
    12:00 +12°C° 0 mm 4 m/s 765 mmHg 49%
    13:00 +13°C° 0 mm 4 m/s 765 mmHg 48%
    14:00 +13°C° 0 mm 3 m/s 765 mmHg 51%
    15:00 +12°C° 0 mm 3 m/s 765 mmHg 54%
    16:00 +12°C° 0 mm 3 m/s 765 mmHg 57%
    17:00 +12°C° 0 mm 2 m/s 766 mmHg 59%
    18:00 +10°C° 0 mm 2 m/s 766 mmHg 60%
    19:00 +10°C° 0 mm 2 m/s 766 mmHg 62%
    20:00 +9°C° 0 mm 3 m/s 767 mmHg 60%
    21:00 +9°C° 0 mm 3 m/s 767 mmHg 59%
    22:00 +8°C° 0 mm 4 m/s 768 mmHg 57%
    23:00 +8°C° 0 mm 4 m/s 768 mmHg 58%

    Après-demain, 24 Janvier, Vendredi

    Heure Température Précipitation Vent Pression Humidité
    00:00 +8°C° 0 mm 5 m/s 768 mmHg 59%
    01:00 +8°C° 0 mm 5 m/s 768 mmHg 60%
    02:00 +7°C° 0 mm 5 m/s 768 mmHg 59%
    03:00 +7°C° 0 mm 5 m/s 768 mmHg 58%
    04:00 +7°C° 0 mm 5 m/s 768 mmHg 57%
    05:00 +7°C° 0 mm 5 m/s 769 mmHg 58%
    06:00 +7°C° 0 mm 5 m/s 769 mmHg 60%
    07:00 +7°C° 0 mm 5 m/s 769 mmHg 62%
    08:00 +8°C° 0 mm 5 m/s 769 mmHg 60%
    09:00 +9°C° 0 mm 5 m/s 770 mmHg 58%
    10:00 +12°C° 0 mm 5 m/s 770 mmHg 56%
    11:00 +12°C° 0 mm 5 m/s 769 mmHg 59%
    12:00 +12°C° 0 mm 5 m/s 769 mmHg 62%
    13:00 +13°C° 0 mm 6 m/s 769 mmHg 65%
    14:00 +13°C° 0 mm 5 m/s 769 mmHg 69%
    15:00 +12°C° 0 mm 5 m/s 768 mmHg 73%
    16:00 +12°C° 0 mm 4 m/s 768 mmHg 77%
    17:00 +12°C° 0.1 mm 4 m/s 768 mmHg 79%
    18:00 +11°C° 0.1 mm 4 m/s 769 mmHg 81%
    19:00 +11°C° 0.1 mm 4 m/s 769 mmHg 83%
    20:00 +11°C° 0 mm 4 m/s 769 mmHg 82%
    21:00 +11°C° 0 mm 4 m/s 769 mmHg 81%
    22:00 +11°C° 0 mm 4 m/s 769 mmHg 80%
    23:00 +10°C° 0 mm 3 m/s 768 mmHg 79%

    25 Janvier, Samedi

    Heure Température Précipitation Vent Pression Humidité
    00:00 +10°C° 0 mm 3 m/s 768 mmHg 78%
    01:00 +10°C° 0 mm 3 m/s 768 mmHg 77%
    02:00 +10°C° 0.1 mm 3 m/s 768 mmHg 79%
    03:00 +10°C° 0.1 mm 3 m/s 768 mmHg 80%
    04:00 +11°C° 0.1 mm 3 m/s 767 mmHg 81%
    05:00 +10°C° 0.1 mm 3 m/s 767 mmHg 81%
    06:00 +10°C° 0.1 mm 3 m/s 767 mmHg 82%
    07:00 +10°C° 0.1 mm 3 m/s 767 mmHg 83%
    08:00 +11°C° 0.1 mm 3 m/s 767 mmHg 81%
    09:00 +12°C° 0.1 mm 3 m/s 767 mmHg 79%
    10:00 +12°C° 0.1 mm 3 m/s 767 mmHg 77%
    11:00 +13°C° 0.1 mm 4 m/s 767 mmHg 77%
    12:00 +13°C° 0.1 mm 4 m/s 767 mmHg 77%
    13:00 +13°C° 0.1 mm 4 m/s 766 mmHg 77%
    14:00 +13°C° 0.1 mm 4 m/s 766 mmHg 78%
    15:00 +13°C° 0.1 mm 4 m/s 766 mmHg 79%
    16:00 +13°C° 0.1 mm 4 m/s 765 mmHg 80%
    17:00 +13°C° 0.1 mm 4 m/s 766 mmHg 82%
    18:00 +12°C° 0.1 mm 4 m/s 766 mmHg 83%
    19:00 +12°C° 0.1 mm 4 m/s 766 mmHg 85%
    20:00 +12°C° 0.1 mm 4 m/s 766 mmHg 85%
    21:00 +12°C° 0.1 mm 4 m/s 766 mmHg 85%
    22:00 +11°C° 0.1 mm 4 m/s 766 mmHg 85%
    23:00 +11°C° 0.1 mm 4 m/s 766 mmHg 84%

    26 Janvier, Dimanche

    Heure Température Précipitation Vent Pression Humidité
    00:00 +11°C° 0.1 mm 4 m/s 766 mmHg 84%
    01:00 +11°C° 0.1 mm 4 m/s 765 mmHg 83%
    02:00 +10°C° 0 mm 5 m/s 765 mmHg 83%
    03:00 +10°C° 0 mm 5 m/s 765 mmHg 83%
    04:00 +10°C° 0 mm 5 m/s 765 mmHg 83%
    05:00 +10°C° 0 mm 5 m/s 765 mmHg 83%
    06:00 +10°C° 0 mm 5 m/s 765 mmHg 83%
    07:00 +10°C° 0 mm 6 m/s 765 mmHg 83%
    08:00 +11°C° 0 mm 6 m/s 765 mmHg 80%
    09:00 +11°C° 0 mm 6 m/s 765 mmHg 76%
    10:00 +13°C° 0 mm 6 m/s 765 mmHg 73%
    11:00 +12°C° 0.3 mm 7 m/s 764 mmHg 75%
    12:00 +12°C° 0.3 mm 7 m/s 764 mmHg 77%
    13:00 +12°C° 0.3 mm 7 m/s 763 mmHg 79%
    14:00 +11°C° 0.9 mm 7 m/s 763 mmHg 82%
    15:00 +11°C° 0.9 mm 6 m/s 763 mmHg 85%
    16:00 +11°C° 0.9 mm 6 m/s 763 mmHg 87%
    17:00 +12°C° 1.6 mm 5 m/s 763 mmHg 89%
    18:00 +12°C° 1.6 mm 5 m/s 763 mmHg 90%
    19:00 +12°C° 1.6 mm 4 m/s 763 mmHg 91%
    20:00 +12°C° 0.8 mm 4 m/s 763 mmHg 90%
    21:00 +12°C° 0.8 mm 3 m/s 764 mmHg 90%
    22:00 +13°C° 0.8 mm 2 m/s 764 mmHg 90%
    23:00 +13°C° 0.2 mm 2 m/s 764 mmHg 90%

    27 Janvier, Lundi

    Heure Température Précipitation Vent Pression Humidité
    00:00 +13°C° 0.2 mm 2 m/s 764 mmHg 90%
    01:00 +13°C° 0.2 mm 2 m/s 764 mmHg 91%
    02:00 +13°C° 0.2 mm 2 m/s 764 mmHg 90%
    03:00 +12°C° 0.2 mm 3 m/s 764 mmHg 89%
    04:00 +12°C° 0.2 mm 3 m/s 764 mmHg 88%
    05:00 +11°C° 0.1 mm 3 m/s 764 mmHg 87%
    06:00 +11°C° 0.1 mm 3 m/s 764 mmHg 87%
    07:00 +11°C° 0.1 mm 3 m/s 764 mmHg 86%
    08:00 +12°C° 0.2 mm 3 m/s 764 mmHg 82%
    09:00 +13°C° 0.2 mm 3 m/s 764 mmHg 78%
    10:00 +16°C° 0.2 mm 2 m/s 765 mmHg 74%
    11:00 +16°C° 0.1 mm 2 m/s 764 mmHg 72%
    12:00 +17°C° 0.1 mm 2 m/s 764 mmHg 69%
    13:00 +17°C° 0.1 mm 2 m/s 764 mmHg 66%
    14:00 +17°C° 0 mm 2 m/s 764 mmHg 70%
    15:00 +16°C° 0 mm 3 m/s 764 mmHg 74%
    16:00 +16°C° 0 mm 3 m/s 764 mmHg 77%
    17:00 +14°C° 0 mm 3 m/s 764 mmHg 79%
    18:00 +13°C° 0 mm 3 m/s 764 mmHg 81%
    19:00 +13°C° 0 mm 2 m/s 764 mmHg 83%
    20:00 +13°C° 0 mm 2 m/s 765 mmHg 83%
    21:00 +13°C° 0 mm 2 m/s 765 mmHg 83%
    22:00 +13°C° 0 mm 2 m/s 765 mmHg 83%
    23:00 +13°C° 0 mm 2 m/s 765 mmHg 82%
    Voir plus